Погода в Линде

Россия / Нижегородская область     56°36′56″N   44°05′48″E
темп.,
°C
ветер,
м/с
пор.,
м/с
влажн.,
%
обл.,
%
осадки,
мм/ч
давл.,
гПа
погр.,
м
27 января, чт
чт2700:00−16юз229994 0.1 101614
03:00−16зюз229997 0.1 101648
06:00−21юз22100100 0.1 101715
09:00−19юз2310093 0.1 101859
12:00−14ююз2394100 0.1 1018195
15:00−13ю239689 0.1 101878
18:00−20ю2210098 0.0 101812
21:00−22ю2310099 0.1 101735
28 января, пт
пт2800:00−22ююв33100100 0.0 101741
03:00−20ююв35100100 0.0 101768
06:00−20юв3510061 0.0 101658
09:00−19ююв379984 0.0 1016101
12:00−12ююв4109276 0.0 1015310
15:00−10ююв4109374 0.0 1014369
18:00−11юв4109699 0.0 1013190
21:00−10юв4119698 0.1 1012259
29 января, сб
сб2900:00−11юв4996100 0.0 1011180
03:00−10юв51095100 0.0 1010267
06:00−10юв51095100 0.1 1009302
09:00−9юв4995100 0.8 1008306
12:00−7ююв4793100 0.4 1007345
15:00−6ююв369495 0.6 1007316
18:00−10юв359879 0.1 100773
21:00−10ююв259784 0.3 100687
30 января, вс
вс3000:00−10ююв239784 0.2 100556
03:00−10ююв249791 0.3 100452
06:00−10ююв369799 0.1 100296
09:00−7ююв379768 0.6 1001180
12:00−4ю489397 0.1 1000411
15:00−3ю4895100 0.3 999650
18:00−5ююв51091100 0.1 998606
21:00−6ююв61192100 0.1 997437
31 января, пн
пн3100:00−6ююв61395100 0.8 996554
03:00−5ююв61394100 1.4 995576
06:00−5юв61295100 0.5 993532
09:00−4юв61296100 1.8 993571
12:00−1ююв51093100 1.1 992662
15:00−1ююв4893100 1.3 993535
18:00−1юв51093100 0.0 992385
21:000юв61297100 1.0 991656